Zurück zum Katalog

GONETS-M 25

AktivKommunikationPO
NORAD 54152·PAYLOAD·🇷🇺 Russia

Gestartet Oct 22, 2022 von Vostochny Cosmodrome

Loading…

Nächste Überflüge (nächste 24 Stunden)

TLE

AktuellSource: Space-Track

Epoche: Sep 14, 2026, 13:46 UTC

1 54152U 22139C   26257.57377299  .00000025  00000-0  10631-3 0  9996
2 54152  82.5019 292.4864 0021161  38.8407 321.4189 12.42892654176757

Verfolge GONETS-M 25 in Echtzeit mit AllMySat

Download on the App Store